User: anonymous   Login
Location: Unspecified
(0.0000°N, 0.0000°E)
Time: 02:51:19
(UTC+00:00)
Language:

PAYLOAD H - Orbit

View from above orbital plane
View from above orbital plane
View from above satellite
View from above satellite

Ground track
Ground track

The orbit data is extracted from the following two-line orbital elements,

1 27847U 03031H   17147.56948106 +.00000024 +00000-0 +30789-4 0  9991
2 27847 098.6834 155.6406 0009780 028.5745 331.5967 14.22053834721488
Epoch (UTC): 27 May 2017 13:40:03
Eccentricity: 0.0009780
inclination: 98.6834°
perigee height: 811 km
apogee height: 825 km
right ascension of ascending node: 155.6406°
argument of perigee: 28.5745°
revolutions per day: 14.22053834
mean anomaly at epoch: 331.5967°
orbit number at epoch: 72148

The dashed part of the orbit path shows where the satellite is in the earth's shadow,  

DLR